Location: Zapote
(9.9191°N, 84.0597°W)
Time: 06:57:43
(UTC-06:00)

ISS - Pass Details

Date: 12 April 2020
Orbit: 417 x 419 km, 51.6° (Epoch: 03 June)

Event Time Altitude Azimuth Distance (km) Brightness Sun altitude
Rises 18:35:25 0° 314° (NW) 2,345 1.1 -12.6°
Reaches altitude 10° 18:37:34 10° 308° (NW) 1,483 0.1 -13.1°
Maximum altitude 18:40:44 43° 235° (SW) 591 -2.7 -13.9°
Enters shadow 18:43:45 11° 163° (SSE) 1,413 -1.4 -14.6°
